Regional Weather Roundup
Issued by NWS Sioux Falls, SD

Home | Current Version | Previous Version | Text Only | Print | Product List | Glossary On
Versions: 1 2 3 4 5 6 7 8 9 10 11 12 13 14 15 16 17 18 19 20 21 22 23 24 25 26 27 28 29 30 31 32 33 34 35 36 37 38 39 40 41 42 43 44 45 46 47 48 49 50
000
ASUS43 KFSD 241010
RWRFSD

WEATHER ROUNDUP FOR SE SOUTH DAKOTA/SW MINNESOTA/NW IOWA
NATIONAL WEATHER SERVICE SIOUX FALLS SD
500 AM CDT MON APR 24 2017

NOTE: "FAIR" INDICATES FEW OR NO CLOUDS BELOW 12,000 FEET WITH NO
SIGNIFICANT WEATHER AND OR OBSTRUCTIONS TO VISIBILITY.


SDZ038>040-050-052>070-241100-
SOUTHEAST SOUTH DAKOTA

CITY           SKY/WX    TMP DP  RH WIND       PRES   REMARKS
BROOKINGS      CLOUDY    53  35  50 S17G24    29.67F
CHAMBERLAIN    CLOUDY    56  38  50 SE8       29.56S
HURON          CLOUDY    52  37  56 SE13G22   29.58F
MADISON        FAIR      50  36  57 S15G22    29.67S
MITCHELL       CLOUDY    54  38  54 S16       29.61F
SIOUX FALLS    CLOUDY    55  35  47 S18       29.69S
WINNER         FAIR      55  36  48 S9        29.54R
YANKTON        CLOUDY    55  32  41 S10G16    29.67S
$$

MNZ071-072-080-081-089-090-097-098-241100-
SOUTHWEST MINNESOTA

CITY           SKY/WX    TMP DP  RH WIND       PRES   REMARKS
FAIRMONT       PTCLDY    49  34  56 S15       29.81F
JACKSON        PTCLDY    50  32  50 S14       29.78F
LUVERNE        CLOUDY    48  32  53 S10       29.73S
MARSHALL       CLOUDY    55  33  43 S23G29    29.68F
MONTEVIDEO     CLOUDY    46  36  66 S7        29.69F
PIPESTONE      CLOUDY    48  30  49 S10       29.71S
REDWOOD FALLS  CLOUDY    51  33  50 SE12      29.73F
TRACY          CLOUDY    55  35  45 S17G23    29.72F
WINDOM         MOCLDY    54  32  43 S13       29.76F
WORTHINGTON    CLOUDY    52  34  50 S15       29.75F
$$

IAZ001>003-012>014-020>022-031-032-NEZ013-014-SDZ071-241100-
NORTHWEST IOWA

CITY           SKY/WX    TMP DP  RH WIND       PRES   REMARKS
DENISON        CLOUDY    50  36  57 S12       29.82F
ESTHERVILLE    CLOUDY    47  35  63 S14       29.79F
LE MARS        MOCLDY    54  36  50 S16       29.75F
ORANGE CITY    CLOUDY    48  36  61 S8        29.75F
SHELDON        CLOUDY    48  36  61 SE15      29.74F
SIOUX CITY     MOCLDY    52  37  56 SE10      29.75F
SPENCER        CLOUDY    49  35  58 MISG      29.78F
STORM LAKE     CLOUDY    50  36  57 S16       29.79F
$$

ABBREVIATIONS USED IN REMARKS
   TC - TEMPERATURE IN CELSIUS
  WCI - WIND CHILL INDEX
   HX - HEAT INDEX
  VSB - VISIBILITY





USA.gov is the U.S. government's official web portal to all federal, state and local government web resources and services.